TimeAKST,TemperatureF,Dew PointF,Humidity,Sea Level PressureIn,VisibilityMPH,Wind Direction,Wind SpeedMPH,Gust SpeedMPH,PrecipitationIn,Events,Conditions,WindDirDegrees,DateUTC
12:14 AM,21.2,15.8,80,30.09,10.0,WNW,5.8,-,N/A,,Overcast,290,2012-11-10 09:14:00
12:54 AM,21.9,15.1,75,30.10,10.0,WNW,8.1,-,N/A,,Overcast,290,2012-11-10 09:54:00
1:13 AM,21.2,15.8,80,30.09,10.0,WNW,4.6,-,0.00,Snow,Light Snow,290,2012-11-10 10:13:00
1:21 AM,21.2,15.8,80,30.09,5.0,WNW,5.8,-,0.00,Snow,Light Snow,290,2012-11-10 10:21:00
1:34 AM,21.2,17.6,86,30.09,2.0,WNW,4.6,-,0.00,Snow,Light Snow,300,2012-11-10 10:34:00
1:47 AM,21.2,17.6,86,30.09,1.8,West,4.6,-,0.00,Snow,Light Snow,280,2012-11-10 10:47:00
1:54 AM,21.9,18.0,85,30.10,1.5,WNW,5.8,-,0.00,Snow,Light Snow,300,2012-11-10 10:54:00
2:43 AM,21.2,19.4,93,30.08,1.8,WNW,9.2,-,0.01,Snow,Light Snow,290,2012-11-10 11:43:00
2:45 AM,21.2,19.4,93,30.08,2.0,WNW,9.2,-,0.01,Snow,Light Snow,290,2012-11-10 11:45:00
2:54 AM,21.9,19.0,89,30.09,1.5,WNW,9.2,-,0.01,Snow,Light Snow,290,2012-11-10 11:54:00
3:14 AM,21.2,19.4,93,30.07,2.0,WNW,9.2,-,0.01,Snow,Light Snow,290,2012-11-10 12:14:00
3:27 AM,21.2,19.4,93,30.07,6.0,West,8.1,-,0.01,Snow,Light Snow,280,2012-11-10 12:27:00
3:54 AM,21.9,19.0,89,30.07,10.0,West,9.2,-,0.01,,Overcast,280,2012-11-10 12:54:00
4:54 AM,21.9,19.0,89,30.04,10.0,WNW,12.7,-,0.00,,Overcast,290,2012-11-10 13:54:00
5:54 AM,21.9,19.0,89,30.02,5.0,WNW,12.7,-,0.00,Snow,Light Snow,290,2012-11-10 14:54:00
6:29 AM,23.0,19.4,86,30.00,4.0,WNW,11.5,-,0.00,Snow,Light Snow,300,2012-11-10 15:29:00
6:54 AM,24.1,19.9,84,30.00,9.0,WNW,11.5,-,0.00,,Overcast,300,2012-11-10 15:54:00
7:54 AM,23.0,19.9,88,29.99,7.0,WNW,12.7,-,0.00,Snow,Light Snow,290,2012-11-10 16:54:00
8:26 AM,23.0,19.4,86,29.98,4.0,WNW,11.5,-,0.00,Snow,Light Snow,290,2012-11-10 17:26:00
8:54 AM,23.0,19.9,88,29.98,6.0,WNW,10.4,-,0.00,Snow,Light Snow,290,2012-11-10 17:54:00
9:08 AM,23.0,19.4,86,29.97,1.8,WNW,11.5,-,0.00,Snow,Light Snow,290,2012-11-10 18:08:00
9:27 AM,23.0,19.4,86,29.97,0.8,WNW,12.7,-,0.00,Snow,Light Snow,290,2012-11-10 18:27:00
9:42 AM,23.0,21.2,93,29.97,1.2,West,11.5,-,0.00,Snow,Light Snow,280,2012-11-10 18:42:00
9:54 AM,23.0,21.0,92,29.98,1.8,West,11.5,-,0.00,Snow,Light Snow,280,2012-11-10 18:54:00
10:01 AM,23.0,21.2,93,29.97,3.0,West,10.4,-,0.00,Snow,Light Snow,280,2012-11-10 19:01:00
10:23 AM,23.0,21.2,93,29.96,2.0,WNW,10.4,-,0.01,Snow,Light Snow,290,2012-11-10 19:23:00
10:38 AM,23.0,21.2,93,29.96,1.5,WNW,11.5,-,0.01,Snow,Light Snow,290,2012-11-10 19:38:00
10:54 AM,24.1,21.0,88,29.97,1.2,WNW,10.4,-,0.01,Snow,Light Snow,290,2012-11-10 19:54:00
11:54 AM,24.1,21.9,91,29.96,1.5,WNW,9.2,-,0.00,Snow,Light Snow,290,2012-11-10 20:54:00
12:14 PM,24.8,21.2,86,29.95,3.0,WNW,9.2,-,0.00,Snow,Light Snow,290,2012-11-10 21:14:00
12:54 PM,25.0,21.9,88,29.95,4.0,WNW,8.1,-,0.00,Snow,Light Snow,290,2012-11-10 21:54:00
1:54 PM,25.0,21.9,88,29.93,2.5,WNW,10.4,-,0.00,Snow,Light Snow,290,2012-11-10 22:54:00
2:09 PM,24.8,21.2,86,29.91,4.0,WNW,9.2,-,0.00,Snow,Light Snow,290,2012-11-10 23:09:00
2:50 PM,24.8,23.0,93,29.91,2.0,WNW,9.2,-,0.00,Snow,Light Snow,290,2012-11-10 23:50:00
2:54 PM,25.0,23.0,92,29.92,2.0,WNW,10.4,-,0.00,Snow,Light Snow,290,2012-11-10 23:54:00
3:04 PM,24.8,23.0,93,29.90,1.5,WNW,10.4,-,0.00,Snow,Light Snow,290,2012-11-11 00:04:00
3:40 PM,24.8,23.0,93,29.90,2.5,WNW,8.1,-,0.01,Snow,Light Snow,300,2012-11-11 00:40:00
3:47 PM,24.8,23.0,93,29.90,3.0,WNW,8.1,-,0.01,Snow,Light Snow,290,2012-11-11 00:47:00
3:54 PM,25.0,23.0,92,29.91,3.0,WNW,6.9,-,0.01,Snow,Light Snow,290,2012-11-11 00:54:00
3:56 PM,24.8,23.0,93,29.89,2.5,WNW,6.9,-,0.00,Snow,Light Snow,290,2012-11-11 00:56:00
4:10 PM,24.8,23.0,93,29.89,3.0,WNW,8.1,-,0.00,Snow,Light Snow,290,2012-11-11 01:10:00
4:44 PM,24.8,23.0,93,29.88,2.0,WNW,9.2,-,0.00,Snow,Light Snow,290,2012-11-11 01:44:00
4:51 PM,24.8,23.0,93,29.87,2.0,WNW,9.2,-,0.00,Snow,Light Snow,290,2012-11-11 01:51:00
4:54 PM,25.0,23.0,92,29.88,2.5,West,9.2,-,0.00,Snow,Light Snow,280,2012-11-11 01:54:00
5:14 PM,24.8,23.0,93,29.87,3.0,West,8.1,-,0.00,Snow,Light Snow,280,2012-11-11 02:14:00
5:26 PM,24.8,23.0,93,29.87,2.5,WNW,9.2,-,0.00,Snow,Light Snow,290,2012-11-11 02:26:00
5:54 PM,25.0,23.0,92,29.87,2.5,WNW,10.4,-,0.01,Snow,Light Snow,290,2012-11-11 02:54:00
6:19 PM,24.8,23.0,93,29.86,1.2,WNW,10.4,-,0.00,Snow,Light Snow,290,2012-11-11 03:19:00
6:54 PM,25.0,23.0,92,29.87,2.0,WNW,10.4,-,0.00,Snow,Light Snow,290,2012-11-11 03:54:00
7:10 PM,24.8,23.0,93,29.86,3.0,WNW,10.4,-,0.00,Snow,Light Snow,290,2012-11-11 04:10:00
7:18 PM,24.8,23.0,93,29.85,2.5,WNW,11.5,-,0.00,Snow,Light Snow,290,2012-11-11 04:18:00
7:46 PM,24.8,23.0,93,29.84,3.0,WNW,11.5,-,0.01,Snow,Light Snow,290,2012-11-11 04:46:00
7:54 PM,25.0,23.0,92,29.85,4.0,WNW,11.5,-,0.01,Snow,Light Snow,290,2012-11-11 04:54:00
8:54 PM,25.0,23.0,92,29.85,8.0,WNW,10.4,-,0.00,,Overcast,290,2012-11-11 05:54:00
9:54 PM,26.1,23.0,88,29.85,10.0,WNW,11.5,-,N/A,,Overcast,290,2012-11-11 06:54:00
10:54 PM,25.0,23.0,92,29.84,10.0,WNW,9.2,-,N/A,,Overcast,290,2012-11-11 07:54:00
11:54 PM,25.0,23.0,92,29.83,10.0,WNW,11.5,-,N/A,,Overcast,290,2012-11-11 08:54:00